| time (UTC) | temp C | wind direction | speed KPH | gust KPH | rain 1hr cm | rain 24hr cm | rain mn cm | humidity % | barometer mb |
| 20260906223538 | 33 | 231 | 3.2 | 9.7 | 0.00 | 0.00 | 0.00 | 17 | 1016.5 |
| 20260906223058 | 33 | 109 | 3.2 | 9.7 | 0.00 | 0.00 | 0.00 | 16 | 1016.5 |
| 20260906222534 | 33 | 0 | 0.0 | 8.0 | 0.00 | 0.00 | 0.00 | 16 | 1016.6 |
| 20260906222036 | 33 | 167 | 1.6 | 6.4 | 0.00 | 0.00 | 0.00 | 17 | 1016.7 |
| 20260906221605 | 34 | 101 | 1.6 | 4.8 | 0.00 | 0.00 | 0.00 | 16 | 1016.8 |
| 20260906221034 | 34 | 98 | 1.6 | 11.3 | 0.00 | 0.00 | 0.00 | 16 | 1016.8 |
| 20260906220537 | 35 | 242 | 0.0 | 11.3 | 0.00 | 0.00 | 0.00 | 16 | 1016.8 |
| 20260906220104 | 35 | 219 | 3.2 | 8.0 | 0.00 | 0.00 | 0.00 | 16 | 1017.0 |
| 20260906215542 | 35 | 217 | 3.2 | 8.0 | 0.00 | 0.00 | 0.00 | 15 | 1017.1 |
| 20260906215038 | 35 | 279 | 3.2 | 9.7 | 0.00 | 0.00 | 0.00 | 15 | 1017.2 |
| 20260906214602 | 34 | 256 | 1.6 | 9.7 | 0.00 | 0.00 | 0.00 | 16 | 1017.3 |
| 20260906214038 | 34 | 161 | 1.6 | 8.0 | 0.00 | 0.00 | 0.00 | 16 | 1017.4 |
| 20260906213539 | 33 | 232 | 3.2 | 8.0 | 0.00 | 0.00 | 0.00 | 17 | 1017.5 |
| 20260906213055 | 33 | 239 | 0.0 | 8.0 | 0.00 | 0.00 | 0.00 | 17 | 1017.6 |
| 20260906212538 | 33 | 239 | 3.2 | 12.9 | 0.00 | 0.00 | 0.00 | 17 | 1017.7 |
| 20260906212038 | 33 | 0 | 0.0 | 16.1 | 0.00 | 0.00 | 0.00 | 17 | 1017.7 |
| 20260906211604 | 33 | 159 | 3.2 | 16.1 | 0.00 | 0.00 | 0.00 | 16 | 1017.8 |
| 20260906211038 | 33 | 73 | 3.2 | 16.1 | 0.00 | 0.00 | 0.00 | 16 | 1017.8 |
| 20260906210538 | 33 | 224 | 4.8 | 12.9 | 0.00 | 0.00 | 0.00 | 17 | 1017.9 |
| 20260906210129 | 32 | 257 | 4.8 | 11.3 | 0.00 | 0.00 | 0.00 | 18 | 1018.2 |
| 20260906205535 | 32 | 284 | 3.2 | 9.7 | 0.00 | 0.00 | 0.00 | 18 | 1018.2 |
| 20260906205035 | 33 | 98 | 1.6 | 6.4 | 0.00 | 0.00 | 0.00 | 17 | 1018.2 |
| 20260906204600 | 33 | 167 | 1.6 | 9.7 | 0.00 | 0.00 | 0.00 | 16 | 1018.3 |
| 20260906204038 | 33 | 182 | 1.6 | 9.7 | 0.00 | 0.00 | 0.00 | 16 | 1018.4 |
| 20260906203538 | 33 | 146 | 3.2 | 9.7 | 0.00 | 0.00 | 0.00 | 16 | 1018.4 |
| 20260906203102 | 33 | 119 | 3.2 | 9.7 | 0.00 | 0.00 | 0.00 | 16 | 1018.5 |
| 20260906202534 | 34 | 81 | 4.8 | 9.7 | 0.00 | 0.00 | 0.00 | 15 | 1018.6 |
| 20260906202038 | 35 | 0 | 3.2 | 8.0 | 0.00 | 0.00 | 0.00 | 15 | 1018.6 |
| 20260906201557 | 35 | 32 | 3.2 | 8.0 | 0.00 | 0.00 | 0.00 | 15 | 1018.7 |
| 20260906201035 | 35 | 88 | 3.2 | 8.0 | 0.00 | 0.00 | 0.00 | 15 | 1018.8 |
| 20260906200535 | 35 | 88 | 3.2 | 9.7 | 0.00 | 0.00 | 0.00 | 15 | 1018.8 |
| 20260906200109 | 35 | 12 | 3.2 | 14.5 | 0.00 | 0.00 | 0.00 | 15 | 1018.7 |
| 20260906195539 | 34 | 352 | 6.4 | 14.5 | 0.00 | 0.00 | 0.00 | 16 | 1018.9 |
| 20260906195035 | 34 | 71 | 1.6 | 8.0 | 0.00 | 0.00 | 0.00 | 15 | 1019.0 |
| 20260906194600 | 34 | 351 | 1.6 | 9.7 | 0.00 | 0.00 | 0.00 | 16 | 1019.0 |
| 20260906194036 | 33 | 61 | 1.6 | 9.7 | 0.00 | 0.00 | 0.00 | 16 | 1019.1 |
| 20260906193536 | 33 | 16 | 3.2 | 11.3 | 0.00 | 0.00 | 0.00 | 17 | 1019.2 |
| 20260906193056 | 32 | 74 | 4.8 | 14.5 | 0.00 | 0.00 | 0.00 | 17 | 1019.2 |
| 20260906192538 | 33 | 123 | 4.8 | 14.5 | 0.00 | 0.00 | 0.00 | 16 | 1019.3 |
| 20260906192038 | 32 | 55 | 3.2 | 9.7 | 0.00 | 0.00 | 0.00 | 17 | 1019.6 |
| 20260906191604 | 32 | 124 | 1.6 | 11.3 | 0.00 | 0.00 | 0.00 | 17 | 1019.7 |
| 20260906191035 | 32 | 69 | 6.4 | 16.1 | 0.00 | 0.00 | 0.00 | 17 | 1019.8 |
| 20260906190535 | 33 | 99 | 8.0 | 16.1 | 0.00 | 0.00 | 0.00 | 16 | 1019.8 |
| 20260906190109 | 33 | 61 | 4.8 | 12.9 | 0.00 | 0.00 | 0.00 | 16 | 1019.9 |
| 20260906185535 | 33 | 72 | 4.8 | 12.9 | 0.00 | 0.00 | 0.00 | 16 | 1019.9 |
| 20260906185038 | 33 | 352 | 4.8 | 14.5 | 0.00 | 0.00 | 0.00 | 16 | 1019.9 |
| 20260906184626 | 33 | 56 | 3.2 | 14.5 | 0.00 | 0.00 | 0.00 | 16 | 1020.0 |
| 20260906184035 | 33 | 89 | 3.2 | 9.7 | 0.00 | 0.00 | 0.00 | 16 | 1020.2 |
| 20260906183535 | 33 | 352 | 4.8 | 12.9 | 0.00 | 0.00 | 0.00 | 16 | 1020.4 |
| 20260906183055 | 33 | 17 | 4.8 | 12.9 | 0.00 | 0.00 | 0.00 | 16 | 1020.5 |
| 20260906182534 | 33 | 306 | 3.2 | 9.7 | 0.00 | 0.00 | 0.00 | 17 | 1020.6 |
| 20260906182038 | 32 | 352 | 4.8 | 11.3 | 0.00 | 0.00 | 0.00 | 17 | 1020.8 |
| 20260906181603 | 32 | 65 | 3.2 | 12.9 | 0.00 | 0.00 | 0.00 | 18 | 1020.9 |
| 20260906181036 | 32 | 5 | 3.2 | 14.5 | 0.00 | 0.00 | 0.00 | 19 | 1021.0 |
| 20260906180536 | 32 | 13 | 6.4 | 14.5 | 0.00 | 0.00 | 0.00 | 19 | 1021.0 |
| 20260906175539 | 32 | 47 | 4.8 | 14.5 | 0.00 | 0.00 | 0.00 | 20 | 1021.1 |
| 20260906175122 | 31 | 106 | 3.2 | 12.9 | 0.00 | 0.00 | 0.00 | 22 | 1021.1 |
| 20260906174600 | 31 | 59 | 4.8 | 14.5 | 0.00 | 0.00 | 0.00 | 22 | 1021.3 |
| 20260906174041 | 31 | 63 | 1.6 | 14.5 | 0.00 | 0.00 | 0.00 | 22 | 1021.3 |
| 20260906173540 | 31 | 13 | 4.8 | 14.5 | 0.00 | 0.00 | 0.00 | 23 | 1021.5 |
| 20260906173101 | 31 | 12 | 3.2 | 9.7 | 0.00 | 0.00 | 0.00 | 24 | 1021.5 |
| 20260906172540 | 31 | 349 | 3.2 | 9.7 | 0.00 | 0.00 | 0.00 | 24 | 1021.4 |
| 20260906172039 | 30 | 5 | 3.2 | 8.0 | 0.00 | 0.00 | 0.00 | 25 | 1021.5 |
| 20260906171608 | 30 | 352 | 1.6 | 11.3 | 0.00 | 0.00 | 0.00 | 27 | 1021.5 |
| 20260906171039 | 29 | 360 | 3.2 | 11.3 | 0.00 | 0.00 | 0.00 | 27 | 1021.5 |
| 20260906170541 | 29 | 80 | 3.2 | 11.3 | 0.00 | 0.00 | 0.00 | 27 | 1021.5 |
| 20260906170111 | 28 | 64 | 1.6 | 11.3 | 0.00 | 0.00 | 0.00 | 30 | 1021.5 |
| 20260906165540 | 28 | 77 | 4.8 | 14.5 | 0.00 | 0.00 | 0.00 | 31 | 1021.7 |
| 20260906165040 | 28 | 67 | 4.8 | 14.5 | 0.00 | 0.00 | 0.00 | 32 | 1021.9 |
| 20260906164601 | 28 | 71 | 4.8 | 9.7 | 0.00 | 0.00 | 0.00 | 32 | 1021.9 |
| 20260906164039 | 27 | 348 | 1.6 | 9.7 | 0.00 | 0.00 | 0.00 | 32 | 1021.9 |
| 20260906163540 | 27 | 82 | 3.2 | 14.5 | 0.00 | 0.00 | 0.00 | 35 | 1022.1 |
| 20260906163058 | 26 | 36 | 4.8 | 14.5 | 0.00 | 0.00 | 0.00 | 35 | 1022.2 |
| 20260906162539 | 26 | 88 | 4.8 | 11.3 | 0.00 | 0.00 | 0.00 | 35 | 1022.2 |
| 20260906162039 | 26 | 96 | 6.4 | 11.3 | 0.00 | 0.00 | 0.00 | 35 | 1022.2 |
| 20260906161559 | 26 | 67 | 3.2 | 11.3 | 0.00 | 0.00 | 0.00 | 36 | 1022.3 |
| 20260906161038 | 25 | 59 | 1.6 | 11.3 | 0.00 | 0.00 | 0.00 | 37 | 1022.3 |
| 20260906160538 | 26 | 82 | 6.4 | 11.3 | 0.00 | 0.00 | 0.00 | 37 | 1022.2 |
| 20260906155539 | 25 | 350 | 1.6 | 6.4 | 0.00 | 0.00 | 0.00 | 37 | 1022.2 |
| 20260906155038 | 26 | 11 | 3.2 | 6.4 | 0.00 | 0.00 | 0.00 | 36 | 1022.2 |
| 20260906154559 | 26 | 63 | 1.6 | 6.4 | 0.00 | 0.00 | 0.00 | 36 | 1022.2 |
| 20260906154039 | 25 | 22 | 1.6 | 6.4 | 0.00 | 0.00 | 0.00 | 37 | 1022.1 |
| 20260906153541 | 25 | 5 | 1.6 | 8.0 | 0.00 | 0.00 | 0.00 | 39 | 1022.2 |
| 20260906153101 | 24 | 69 | 3.2 | 9.7 | 0.00 | 0.00 | 0.00 | 41 | 1022.3 |
| 20260906152539 | 23 | 9 | 1.6 | 11.3 | 0.00 | 0.00 | 0.00 | 43 | 1022.2 |
| 20260906152038 | 23 | 71 | 3.2 | 11.3 | 0.00 | 0.00 | 0.00 | 44 | 1022.2 |
| 20260906151604 | 22 | 67 | 1.6 | 8.0 | 0.00 | 0.00 | 0.00 | 45 | 1022.2 |
| 20260906151039 | 22 | 74 | 3.2 | 8.0 | 0.00 | 0.00 | 0.00 | 47 | 1022.1 |
| 20260906150540 | 21 | 0 | 1.6 | 4.8 | 0.00 | 0.00 | 0.00 | 50 | 1022.1 |
| 20260906150107 | 21 | 11 | 1.6 | 4.8 | 0.00 | 0.00 | 0.00 | 51 | 1022.2 |
| 20260906145543 | 21 | 59 | 1.6 | 4.8 | 0.00 | 0.00 | 0.00 | 52 | 1022.2 |
| 20260906145043 | 20 | 58 | 1.6 | 4.8 | 0.00 | 0.00 | 0.00 | 55 | 1022.2 |
| 20260906144609 | 20 | 84 | 0.0 | 4.8 | 0.00 | 0.00 | 0.00 | 58 | 1022.2 |
| 20260906144039 | 19 | 84 | 1.6 | 3.2 | 0.00 | 0.00 | 0.00 | 59 | 1022.4 |
| 20260906143721 | 18 | 84 | 1.6 | 3.2 | 0.00 | 0.00 | 0.00 | 63 | 1022.3 |
| 20260906061041 | 18 | 0 | 0.0 | 1.6 | 0.00 | 0.00 | 0.00 | 58 | 1020.4 |
| 20260906060538 | 18 | 0 | 0.0 | 1.6 | 0.00 | 0.00 | 0.00 | 58 | 1020.3 |
| 20260906060119 | 18 | 0 | 0.0 | 1.6 | 0.00 | 0.00 | 0.00 | 57 | 1020.2 |
| 20260906055538 | 18 | 0 | 0.0 | 1.6 | 0.00 | 0.00 | 0.00 | 57 | 1020.2 |
| 20260906055035 | 18 | 0 | 0.0 | 1.6 | 0.00 | 0.00 | 0.00 | 56 | 1020.2 |
| 20260906054557 | 19 | 0 | 0.0 | 1.6 | 0.00 | 0.00 | 0.00 | 56 | 1020.2 |
| 20260906054039 | 19 | 0 | 0.0 | 1.6 | 0.00 | 0.00 | 0.00 | 55 | 1020.3 |
| 20260906053537 | 19 | 0 | 0.0 | 1.6 | 0.00 | 0.00 | 0.00 | 55 | 1020.3 |
| 20260906053102 | 19 | 0 | 0.0 | 1.6 | 0.00 | 0.00 | 0.00 | 55 | 1020.3 |
| 20260906052537 | 20 | 0 | 0.0 | 3.2 | 0.00 | 0.00 | 0.00 | 54 | 1020.2 |
| 20260906052037 | 20 | 0 | 0.0 | 3.2 | 0.00 | 0.00 | 0.00 | 54 | 1020.2 |
| 20260906051609 | 20 | 84 | 0.0 | 3.2 | 0.00 | 0.00 | 0.00 | 54 | 1020.0 |
| 20260906051036 | 20 | 0 | 0.0 | 3.2 | 0.00 | 0.00 | 0.00 | 53 | 1020.0 |
| 20260906050536 | 20 | 0 | 0.0 | 3.2 | 0.00 | 0.00 | 0.00 | 52 | 1019.9 |
| 20260906045537 | 21 | 0 | 0.0 | 3.2 | 0.00 | 0.00 | 0.00 | 51 | 1020.0 |
| 20260906045037 | 21 | 0 | 0.0 | 3.2 | 0.00 | 0.00 | 0.00 | 50 | 1019.9 |
| 20260906044602 | 21 | 84 | 0.0 | 3.2 | 0.00 | 0.00 | 0.00 | 49 | 1019.9 |
| 20260906044036 | 21 | 0 | 0.0 | 1.6 | 0.00 | 0.00 | 0.00 | 48 | 1019.8 |
| 20260906043536 | 21 | 0 | 0.0 | 1.6 | 0.00 | 0.00 | 0.00 | 48 | 1019.9 |
| 20260906043105 | 21 | 0 | 0.0 | 0.0 | 0.00 | 0.00 | 0.00 | 47 | 1019.9 |
| 20260906042536 | 22 | 0 | 0.0 | 1.6 | 0.00 | 0.00 | 0.00 | 47 | 1019.9 |
| 20260906042036 | 22 | 0 | 0.0 | 3.2 | 0.00 | 0.00 | 0.00 | 47 | 1019.9 |
| 20260906041602 | 22 | 0 | 0.0 | 3.2 | 0.00 | 0.00 | 0.00 | 46 | 1019.9 |
| 20260906041038 | 23 | 84 | 0.0 | 3.2 | 0.00 | 0.00 | 0.00 | 45 | 1019.8 |
| 20260906040536 | 23 | 0 | 0.0 | 0.0 | 0.00 | 0.00 | 0.00 | 44 | 1019.7 |
| 20260906040101 | 23 | 0 | 0.0 | 0.0 | 0.00 | 0.00 | 0.00 | 43 | 1019.7 |
| 20260906035539 | 24 | 0 | 0.0 | 3.2 | 0.00 | 0.00 | 0.00 | 42 | 1019.6 |
| 20260906035037 | 24 | 0 | 0.0 | 3.2 | 0.00 | 0.00 | 0.00 | 40 | 1019.5 |
| 20260906034607 | 25 | 84 | 1.6 | 4.8 | 0.00 | 0.00 | 0.00 | 39 | 1019.5 |
| 20260906034036 | 25 | 0 | 0.0 | 6.4 | 0.00 | 0.00 | 0.00 | 38 | 1019.4 |
| 20260906033536 | 25 | 84 | 1.6 | 6.4 | 0.00 | 0.00 | 0.00 | 38 | 1019.3 |
| 20260906033107 | 25 | 89 | 3.2 | 6.4 | 0.00 | 0.00 | 0.00 | 38 | 1019.3 |
| 20260906032537 | 25 | 94 | 3.2 | 6.4 | 0.00 | 0.00 | 0.00 | 39 | 1019.2 |
| 20260906032036 | 25 | 103 | 1.6 | 4.8 | 0.00 | 0.00 | 0.00 | 39 | 1019.3 |
| 20260906031600 | 25 | 0 | 0.0 | 3.2 | 0.00 | 0.00 | 0.00 | 39 | 1019.2 |
| 20260906031037 | 25 | 44 | 0.0 | 3.2 | 0.00 | 0.00 | 0.00 | 40 | 1019.1 |
| 20260906030536 | 25 | 0 | 0.0 | 3.2 | 0.00 | 0.00 | 0.00 | 39 | 1019.1 |
| 20260906030113 | 25 | 0 | 0.0 | 3.2 | 0.00 | 0.00 | 0.00 | 41 | 1018.8 |
| 20260906025537 | 25 | 44 | 1.6 | 3.2 | 0.00 | 0.00 | 0.00 | 41 | 1018.7 |
| 20260906025037 | 25 | 0 | 0.0 | 3.2 | 0.00 | 0.00 | 0.00 | 42 | 1018.5 |
| 20260906024604 | 25 | 0 | 0.0 | 3.2 | 0.00 | 0.00 | 0.00 | 42 | 1018.4 |
| 20260906024039 | 25 | 0 | 0.0 | 3.2 | 0.00 | 0.00 | 0.00 | 43 | 1018.3 |
| 20260906023537 | 25 | 0 | 0.0 | 3.2 | 0.00 | 0.00 | 0.00 | 43 | 1018.2 |
| 20260906023109 | 25 | 0 | 0.0 | 3.2 | 0.00 | 0.00 | 0.00 | 43 | 1018.2 |
| 20260906022537 | 25 | 44 | 0.0 | 3.2 | 0.00 | 0.00 | 0.00 | 43 | 1018.0 |
| 20260906022039 | 25 | 0 | 0.0 | 0.0 | 0.00 | 0.00 | 0.00 | 43 | 1018.0 |
| 20260906021608 | 25 | 0 | 0.0 | 1.6 | 0.00 | 0.00 | 0.00 | 42 | 1018.0 |
| 20260906021118 | 25 | 0 | 0.0 | 1.6 | 0.00 | 0.00 | 0.00 | 41 | 1017.9 |
| 20260906020537 | 25 | 0 | 0.0 | 1.6 | 0.00 | 0.00 | 0.00 | 40 | 1017.8 |
| 20260906020103 | 26 | 0 | 0.0 | 0.0 | 0.00 | 0.00 | 0.00 | 40 | 1017.9 |
| 20260906015537 | 26 | 0 | 0.0 | 0.0 | 0.00 | 0.00 | 0.00 | 39 | 1017.8 |
| 20260906015036 | 26 | 0 | 0.0 | 0.0 | 0.00 | 0.00 | 0.00 | 39 | 1017.9 |
| 20260906014607 | 26 | 0 | 0.0 | 0.0 | 0.00 | 0.00 | 0.00 | 38 | 1017.8 |
| 20260906014038 | 27 | 0 | 0.0 | 1.6 | 0.00 | 0.00 | 0.00 | 38 | 1017.9 |
| 20260906013537 | 27 | 0 | 0.0 | 1.6 | 0.00 | 0.00 | 0.00 | 37 | 1017.8 |
| 20260906013103 | 27 | 0 | 0.0 | 3.2 | 0.00 | 0.00 | 0.00 | 36 | 1017.8 |
| 20260906012539 | 28 | 0 | 0.0 | 3.2 | 0.00 | 0.00 | 0.00 | 34 | 1017.8 |
| 20260906012038 | 28 | 44 | 0.0 | 3.2 | 0.00 | 0.00 | 0.00 | 33 | 1017.8 |
| 20260906011604 | 29 | 0 | 0.0 | 0.0 | 0.00 | 0.00 | 0.00 | 31 | 1017.7 |
| 20260906011039 | 30 | 0 | 0.0 | 1.6 | 0.00 | 0.00 | 0.00 | 31 | 1017.7 |
| 20260906010537 | 30 | 0 | 0.0 | 1.6 | 0.00 | 0.00 | 0.00 | 30 | 1017.7 |
| 20260906010108 | 30 | 0 | 0.0 | 0.0 | 0.00 | 0.00 | 0.00 | 29 | 1017.7 |
| 20260906005536 | 31 | 0 | 0.0 | 3.2 | 0.00 | 0.03 | 0.00 | 28 | 1017.7 |
| 20260906005039 | 31 | 0 | 0.0 | 3.2 | 0.00 | 0.03 | 0.00 | 26 | 1017.7 |
| 20260906004601 | 31 | 44 | 0.0 | 3.2 | 0.00 | 0.03 | 0.00 | 27 | 1017.7 |
| 20260906004037 | 31 | 0 | 0.0 | 3.2 | 0.00 | 0.03 | 0.00 | 26 | 1017.8 |
| 20260906003536 | 31 | 0 | 0.0 | 1.6 | 0.00 | 0.03 | 0.00 | 26 | 1017.8 |
| 20260906003056 | 32 | 0 | 0.0 | 3.2 | 0.00 | 0.03 | 0.00 | 26 | 1017.8 |
| 20260906002537 | 31 | 0 | 0.0 | 3.2 | 0.00 | 0.03 | 0.00 | 26 | 1017.8 |
| 20260906002037 | 31 | 0 | 1.6 | 3.2 | 0.00 | 0.03 | 0.00 | 26 | 1017.8 |
| 20260906001555 | 31 | 35 | 0.0 | 3.2 | 0.00 | 0.03 | 0.00 | 27 | 1017.8 |
| 20260906001038 | 31 | 36 | 0.0 | 4.8 | 0.00 | 0.03 | 0.00 | 27 | 1017.7 |
| 20260906000537 | 31 | 0 | 0.0 | 4.8 | 0.00 | 0.03 | 0.00 | 27 | 1017.7 |
| 20260906000109 | 31 | 36 | 1.6 | 4.8 | 0.00 | 0.03 | 0.00 | 27 | 1017.7 |
| 20260905235536 | 31 | 17 | 0.0 | 3.2 | 0.00 | 0.03 | 0.00 | 28 | 1017.8 |
| 20260905235036 | 31 | 0 | 0.0 | 4.8 | 0.00 | 0.03 | 0.00 | 28 | 1017.7 |
| 20260905234602 | 31 | 0 | 0.0 | 4.8 | 0.00 | 0.03 | 0.00 | 27 | 1017.7 |
| 20260905234037 | 31 | 17 | 1.6 | 6.4 | 0.00 | 0.03 | 0.00 | 27 | 1017.8 |
| 20260905233537 | 31 | 11 | 1.6 | 6.4 | 0.00 | 0.03 | 0.00 | 27 | 1017.8 |
| 20260905233109 | 31 | 0 | 1.6 | 6.4 | 0.00 | 0.03 | 0.00 | 28 | 1017.8 |
| 20260905232536 | 31 | 30 | 1.6 | 4.8 | 0.00 | 0.03 | 0.00 | 29 | 1017.8 |
| 20260905232035 | 31 | 19 | 0.0 | 4.8 | 0.00 | 0.03 | 0.00 | 29 | 1017.9 |
| 20260905231604 | 31 | 19 | 1.6 | 4.8 | 0.00 | 0.03 | 0.00 | 29 | 1017.9 |
| 20260905231041 | 31 | 45 | 0.0 | 6.4 | 0.00 | 0.03 | 0.00 | 28 | 1018.0 |
| 20260905230537 | 31 | 45 | 1.6 | 6.4 | 0.00 | 0.03 | 0.00 | 28 | 1018.0 |
| 20260905230106 | 31 | 42 | 1.6 | 4.8 | 0.00 | 0.03 | 0.00 | 28 | 1018.1 |
| 20260905225539 | 31 | 360 | 3.2 | 8.0 | 0.00 | 0.03 | 0.00 | 28 | 1018.1 |
| 20260905225038 | 31 | 360 | 1.6 | 9.7 | 0.00 | 0.03 | 0.00 | 28 | 1018.1 |
| 20260905224607 | 31 | 351 | 4.8 | 9.7 | 0.00 | 0.03 | 0.00 | 27 | 1018.1 |
| 20260905224035 | 31 | 342 | 3.2 | 9.7 | 0.00 | 0.03 | 0.00 | 28 | 1018.2 |